Danville, VA

11:24 AM EDT on July 20, 2017 (GMT -0400)
Danville Regional

Weather History for KDAN - April, 2013

Change the Weather History Date:

Wednesday, April 17, 2013

  Actual Average Record
Temperature  
Mean Temperature 68 °F 59 °F  
Max Temperature 80 °F 71 °F 93 °F (2002)
Min Temperature 55 °F 47 °F 28 °F (1962)
Degree Days  
Heating Degree Days 0 7  
Month to date heating degree days 118 159  
Since 1 July heating degree days 3573 3670  
Cooling Degree Days 3 1  
Month to date cooling degree days 35 16  
Year to date cooling degree days 37 19  
Growing Degree Days 17 (Base 50)    
Moisture  
Dew Point 58 °F    
Average Humidity 73    
Maximum Humidity 93    
Minimum Humidity 52    
Precipitation  
Precipitation 0.00 in 0.10 in 2.50 in (1998)
Month to date precipitation 1.96 2.02  
Year to date precipitation 14.32 12.56  
Snow  
Snow 0.00 in - - ()
Month to date snowfall 0.0  
Since 1 July snowfall 1.7  
Snow Depth 0.00 in    
Sea Level Pressure  
Sea Level Pressure 30.15 in    
Wind  
Wind Speed 2 mph (SW)    
Max Wind Speed 9 mph    
Max Gust Speed 12 mph    
Visibility 10 miles    
Events      
T = Trace of Precipitation, MM = Missing Value Source: NWS Daily Summary

Daily Weather History Graph

Daily Weather History Graph

Search for Another Location

Airport or City:

Trip Planner

Search our weather history database for the weather conditions in past years. The results will help you decide how hot, cold, wet, or windy it might be!

Date:

Astronomy

Apr. 17, 2013 Rise Set
Actual Time 6:40 AM EDT 7:53 PM EDT
Civil Twilight 6:13 AM EDT 8:20 PM EDT
Nautical Twilight 5:42 AM EDT 8:52 PM EDT
Astronomical Twilight 5:08 AM EDT 9:25 PM EDT
Moon 11:56 AM EDT (4/17) 1:26 AM EDT (4/17)
Length of Visible Light 14h 06m
Length of Day
13h 12m
Waxing Crescent, 42% of the Moon is Illuminated
Apr 17
Waxing Crescent
Apr 18
First Quarter
Apr 25
Full
May 2
Last Quarter
May 9
New

Hourly Weather History & Observations

Time (EDT) Temp. Dew Point Humidity Pressure Visibility Wind Dir Wind Speed Gust Speed Precip Events Conditions
12:53 AM 60.1 °F 55.0 °F 83% 30.19 in 10.0 mi SW 3.5 mph - N/A   Clear
1:53 AM 60.1 °F 55.0 °F 83% 30.18 in 10.0 mi Calm Calm - N/A   Clear
2:53 AM 57.0 °F 53.1 °F 87% 30.17 in 10.0 mi Calm Calm - N/A   Clear
3:53 AM 57.9 °F 54.0 °F 87% 30.17 in 10.0 mi Calm Calm - N/A   Clear
4:53 AM 57.0 °F 54.0 °F 89% 30.17 in 10.0 mi Calm Calm - N/A   Clear
5:53 AM 55.9 °F 53.1 °F 90% 30.17 in 10.0 mi SSW 5.8 mph - N/A   Clear
6:53 AM 57.9 °F 54.0 °F 87% 30.18 in 10.0 mi Calm Calm - N/A   Clear
7:53 AM 62.1 °F 57.0 °F 84% 30.18 in 10.0 mi SW 4.6 mph - N/A   Clear
8:53 AM 66.9 °F 57.9 °F 73% 30.16 in 10.0 mi SW 5.8 mph - N/A   Clear
10:53 AM 72.0 °F 60.1 °F 66% 30.18 in 10.0 mi Variable 3.5 mph - N/A   Overcast
11:53 AM 72.0 °F 60.1 °F 66% 30.18 in 10.0 mi WSW 8.1 mph - N/A   Mostly Cloudy
12:53 PM 72.0 °F 60.1 °F 66% 30.17 in 10.0 mi WSW 6.9 mph - N/A   Overcast
1:53 PM 75.0 °F 60.1 °F 60% 30.16 in 10.0 mi SW 5.8 mph - N/A   Scattered Clouds
2:53 PM 75.9 °F 60.1 °F 58% 30.14 in 10.0 mi Calm Calm - N/A   Clear
3:53 PM 78.1 °F 59.0 °F 52% 30.11 in 10.0 mi Variable 3.5 mph - N/A   Clear
4:53 PM 78.1 °F 60.1 °F 54% 30.10 in 10.0 mi Variable 3.5 mph - N/A   Clear
5:53 PM 79.0 °F 61.0 °F 54% 30.09 in 10.0 mi SSW 4.6 mph - N/A   Clear
6:53 PM 77.0 °F 60.1 °F 56% 30.10 in 10.0 mi Calm Calm - N/A   Clear
7:53 PM 70.0 °F 63.0 °F 78% 30.10 in 10.0 mi Calm Calm - N/A   Scattered Clouds
8:53 PM 70.0 °F 62.1 °F 76% 30.12 in 10.0 mi Calm Calm - N/A   Overcast
9:53 PM 68.0 °F 60.1 °F 76% 30.12 in 10.0 mi Calm Calm - N/A   Overcast
10:53 PM 69.1 °F 59.0 °F 70% 30.12 in 10.0 mi Calm Calm - N/A   Partly Cloudy
11:53 PM 66.0 °F 59.0 °F 78% 30.12 in 10.0 mi East 3.5 mph - N/A   Clear